Theta_e
310 310 311 311 311 311 311 311 311 310 310 310 311 311 311 311 311 311 311 310 310 311 311 311 310 310 310 310 310 310 311 312 313 315 315 315 315 314 313 313 312 312 312 313 313 314 315 315 315 315 315 316 316 317 317 317 317 320 332 335 323 319 320 320 322 317 318 323 315 313 315 315 317 315 314 315 315 314 314 313 314 315 315 315 316 315 314 314
310 310 311 311 311 311 311 310 310 309 309 309 310 311 310 310 310 311 310 309 310 311 311 310 310 310 310 311 310 310 311 312 314 315 315 314 314 313 313 312 312 313 313 313 313 314 315 315 315 316 316 316 316 317 317 318 317 321 334 334 325 326 320 316 318 313 314 318 314 314 315 315 317 315 315 316 314 313 314 314 313 314 314 315 316 315 314 313
310 311 310 311 310 310 310 309 308 308 307 308 309 309 309 308 309 309 309 309 311 311 310 310 310 310 310 311 310 311 311 312 314 314 313 313 313 313 312 313 313 314 314 314 314 314 315 314 315 315 315 316 316 318 316 318 317 316 327 333 327 323 317 313 314 313 315 315 313 314 314 315 316 315 315 315 314 313 314 315 313 313 315 315 315 316 315 314
310 310 310 310 309 308 308 307 307 307 307 307 307 308 307 307 308 308 309 310 311 310 310 310 310 310 310 310 310 311 313 314 314 313 313 313 313 312 312 314 314 315 315 315 315 314 314 314 315 315 315 315 316 317 316 317 316 314 322 329 321 314 315 315 314 315 315 314 314 314 314 314 315 316 315 314 316 315 314 315 315 315 316 315 315 315 316 314
310 309 308 308 307 307 307 307 307 307 307 307 307 307 307 307 308 308 309 310 310 310 310 310 310 310 310 310 311 311 315 317 314 313 313 312 312 312 314 314 314 314 314 315 316 315 315 315 315 315 315 315 316 317 316 315 316 315 316 317 315 312 316 316 314 315 315 314 315 314 315 316 315 315 314 315 319 319 315 316 317 316 316 316 315 315 315 315
308 308 307 306 307 307 307 307 307 307 307 307 307 307 307 307 308 309 309 309 310 309 310 310 310 310 310 310 310 311 316 317 314 313 313 313 312 313 314 314 313 314 313 314 316 316 315 315 315 315 315 314 315 317 317 315 316 320 316 312 313 314 316 316 315 316 315 315 315 314 316 316 315 315 315 314 317 318 316 316 316 316 316 315 315 314 314 314
307 307 307 307 307 307 307 307 307 307 307 307 307 308 307 308 308 309 309 309 309 309 310 310 310 310 310 310 311 311 313 314 314 314 313 313 313 313 314 314 314 313 313 313 315 316 315 315 316 315 315 314 314 315 316 315 316 322 319 313 315 315 315 316 315 316 316 316 316 315 316 315 315 316 314 314 316 316 316 316 316 316 316 315 314 314 314 313
307 307 307 307 307 307 307 308 307 307 307 307 308 308 308 308 309 309 309 309 309 310 310 310 310 310 310 310 310 312 313 314 315 315 314 313 313 313 313 313 313 313 313 313 314 316 315 315 316 314 315 314 314 314 314 315 316 320 319 314 315 315 316 317 316 316 316 316 316 315 315 315 315 315 313 314 316 316 316 316 316 316 315 315 314 314 314 313
307 307 308 308 308 309 308 308 308 308 308 308 308 308 308 308 308 309 309 309 309 310 310 310 310 310 310 310 310 312 313 315 315 315 315 314 314 314 313 313 313 313 314 314 314 316 316 315 315 315 315 314 314 314 314 316 316 316 317 315 315 315 316 316 316 316 315 315 315 315 315 314 314 314 314 315 315 315 316 315 316 316 315 316 315 314 313 313
308 309 309 310 310 310 310 310 310 309 309 309 309 308 308 309 309 309 309 310 310 310 310 310 310 310 310 310 310 312 314 316 316 316 315 315 315 314 315 314 315 315 315 316 316 317 316 315 315 315 315 315 315 314 314 316 317 316 315 315 315 315 315 315 316 316 315 314 315 315 315 315 313 314 316 316 315 315 315 315 315 316 315 315 315 314 313 312
310 310 310 310 311 311 310 310 310 310 310 310 310 309 309 309 309 309 309 310 310 310 310 310 310 310 310 310 311 311 315 317 317 316 315 315 315 315 316 316 317 317 317 317 317 318 316 316 315 314 316 316 315 315 314 315 315 315 315 316 315 314 315 315 314 314 315 314 314 315 314 313 313 314 316 315 315 315 314 315 315 315 315 315 315 314 314 313
310 310 311 311 310 310 310 310 310 310 310 310 310 310 310 310 310 310 310 310 310 310 309 309 309 309 309 310 311 312 316 318 317 316 315 315 315 315 316 317 318 318 319 318 318 318 317 317 315 315 316 315 316 316 315 315 315 315 315 318 320 319 319 315 313 313 314 315 314 314 315 316 315 314 316 315 315 315 314 314 314 314 315 315 315 314 314 313
311 311 310 310 310 310 309 309 309 309 308 308 308 309 309 310 310 310 310 310 310 309 309 309 309 309 309 310 311 311 315 318 317 316 316 316 315 316 316 317 318 318 319 318 318 318 317 316 315 316 316 315 316 315 315 314 313 317 314 316 323 325 323 314 311 313 313 315 314 314 319 326 324 315 314 315 314 314 313 313 314 314 314 314 314 314 314 313
311 311 310 310 310 309 309 308 308 308 307 308 308 308 308 308 309 309 310 310 310 309 309 309 309 309 309 311 312 311 312 316 318 317 316 317 315 316 316 317 318 317 318 318 318 318 317 317 315 317 316 316 316 314 320 318 316 320 313 319 325 320 327 321 310 313 315 314 313 314 319 325 326 316 313 314 314 314 314 313 313 313 314 314 314 313 313 314
310 310 310 310 310 309 309 308 308 307 307 307 307 308 308 308 308 308 309 309 310 309 309 309 309 310 310 310 311 312 311 313 318 318 317 317 316 316 316 316 317 317 318 318 318 318 317 317 316 317 315 315 316 316 327 325 325 327 315 325 328 317 331 330 310 311 317 314 311 315 320 321 321 315 312 313 312 313 313 314 314 313 313 313 313 313 313 313
309 309 309 309 309 309 309 308 308 307 307 307 307 307 307 307 308 307 308 308 309 309 309 309 309 310 311 311 311 312 312 312 316 318 318 317 316 316 316 316 317 317 318 317 318 317 317 317 316 316 314 315 320 328 336 327 327 333 320 324 330 320 327 327 313 310 313 313 312 314 320 322 320 313 311 312 311 312 312 312 313 313 313 313 313 313 313 313
309 309 309 309 308 308 308 308 308 307 307 307 307 307 307 307 308 307 307 307 308 309 308 310 311 311 311 313 313 313 312 312 314 316 318 317 316 316 316 316 317 317 318 317 317 317 316 317 315 316 315 314 320 330 332 322 325 331 321 320 328 324 322 324 323 314 309 313 315 313 316 319 318 312 311 312 311 311 311 312 313 313 313 313 313 313 312 312
310 309 309 309 309 308 308 308 308 308 307 307 307 307 307 307 307 307 306 306 307 308 308 311 312 312 312 312 313 314 314 313 313 315 316 317 316 316 316 316 317 317 317 316 316 316 316 315 316 320 319 316 319 324 324 323 328 331 325 324 326 323 320 323 326 317 311 314 316 315 315 316 316 312 311 312 311 311 311 313 313 312 312 313 312 312 313 312
314 311 310 308 308 309 309 308 308 308 308 307 307 307 306 307 307 307 306 306 308 310 311 312 311 312 314 312 312 313 314 314 314 314 316 317 316 316 317 316 317 316 315 316 316 315 315 315 318 321 322 320 320 321 322 323 328 331 333 333 329 325 323 324 326 318 312 315 317 316 316 316 316 315 312 311 311 310 312 312 311 311 312 312 312 312 312 313
318 316 313 310 309 308 308 309 308 308 307 307 307 306 307 308 308 308 308 307 308 310 311 312 311 311 313 314 312 313 314 314 315 315 315 316 316 316 317 316 316 315 315 318 318 314 315 319 321 322 322 321 320 319 320 322 323 325 328 330 327 326 325 325 325 317 310 314 321 318 316 316 315 316 313 310 310 309 309 309 309 311 312 312 312 312 313 313
319 318 317 314 311 309 308 308 308 308 308 307 307 306 307 308 308 310 310 309 308 308 309 310 311 311 312 313 313 313 314 315 315 316 316 316 316 316 316 315 317 317 314 315 316 314 316 320 323 323 319 318 318 317 317 320 320 320 322 323 323 324 324 322 321 317 311 314 322 319 316 316 314 314 312 309 309 309 309 309 309 311 312 312 312 312 313 313
320 319 318 317 314 312 309 307 308 308 308 308 307 307 307 306 308 310 311 311 310 309 309 308 310 311 312 312 313 314 315 316 316 316 316 316 317 316 315 316 318 320 316 314 317 318 318 321 321 317 313 314 317 316 315 318 317 318 320 319 322 323 321 321 319 316 312 314 323 322 317 317 315 314 312 309 309 311 311 312 312 313 312 312 313 313 313 312
321 320 319 318 316 314 311 308 307 307 308 308 307 307 307 307 308 309 311 313 313 311 310 309 309 309 311 312 313 314 315 317 317 316 316 316 316 316 314 316 319 320 318 317 322 322 322 325 320 312 311 316 319 317 316 316 317 319 319 318 322 322 320 324 322 316 314 315 319 320 317 316 315 314 314 311 310 311 313 313 313 313 313 313 314 314 313 312
322 321 320 319 318 316 313 310 308 308 307 307 308 307 307 309 309 310 311 312 314 313 310 310 311 309 310 311 312 314 315 316 316 316 317 316 316 315 314 315 318 319 318 318 321 321 323 322 314 310 314 318 319 319 319 319 320 322 320 319 321 322 321 323 322 319 320 320 317 317 320 321 320 318 318 315 312 311 312 312 313 313 314 314 313 313 313 313
323 322 321 320 318 317 316 313 311 310 308 307 307 307 307 308 310 312 311 311 312 313 311 311 312 311 310 310 311 313 315 316 316 316 316 316 316 315 314 314 317 319 318 317 317 318 320 315 312 316 317 317 319 321 322 322 322 324 323 321 319 321 321 321 321 320 324 327 320 317 324 331 331 326 324 321 319 318 314 310 311 314 315 313 313 313 313 313
322 323 322 321 319 318 317 316 315 313 310 309 307 307 307 309 311 312 312 313 313 311 313 313 313 313 311 311 312 313 315 316 315 316 316 316 315 315 316 315 314 317 316 316 315 317 318 313 317 325 320 318 320 320 323 321 320 323 325 322 318 318 319 320 321 320 325 328 319 316 322 329 327 324 328 329 327 327 320 312 311 314 315 314 314 316 315 313
323 323 323 322 320 319 317 317 317 316 313 311 309 307 308 311 313 310 309 314 313 311 315 314 312 314 313 312 313 312 314 315 315 316 316 316 316 315 317 316 314 314 313 314 316 317 318 316 318 323 323 322 320 321 322 318 320 326 323 320 320 318 319 322 321 322 325 324 321 319 320 323 322 321 326 326 324 325 322 318 315 313 314 316 317 317 317 315
322 322 322 323 321 320 319 317 318 317 315 314 310 308 310 312 312 310 309 311 310 311 315 314 312 313 313 313 313 312 313 315 316 317 315 316 316 315 317 316 316 317 313 314 318 315 316 321 319 319 322 321 322 327 324 317 322 326 318 317 320 320 322 324 323 323 321 320 325 326 319 320 325 325 325 322 321 323 323 321 319 315 315 316 317 318 318 316
321 321 322 322 322 321 320 319 318 318 316 314 310 309 312 312 311 311 311 310 311 314 314 314 314 313 313 314 313 312 313 314 316 317 315 315 316 316 317 315 313 316 313 313 318 316 314 317 316 317 321 320 325 327 320 318 321 317 313 317 320 321 324 325 326 326 323 321 325 325 321 321 325 326 326 322 322 325 322 321 319 314 315 316 317 318 317 316
320 321 321 322 321 321 320 320 319 318 316 313 310 311 312 313 310 308 309 310 314 317 313 313 315 314 314 315 313 313 314 314 315 315 314 314 315 314 315 314 313 318 318 315 318 318 313 312 312 316 318 316 320 318 312 315 316 312 318 326 326 326 327 327 326 324 324 325 324 323 322 322 324 326 328 323 324 328 323 322 323 317 315 317 318 318 317 316
318 320 321 321 321 321 320 320 319 318 316 311 310 313 314 313 311 310 310 309 310 315 314 314 315 314 314 316 315 314 314 314 314 315 315 315 315 315 315 315 315 319 321 319 320 318 315 315 314 315 314 313 317 317 312 312 311 315 329 331 326 328 327 325 326 324 324 327 324 322 319 320 323 326 327 323 324 327 323 323 328 322 317 318 318 317 317 316
315 319 320 320 321 320 320 320 320 318 316 312 311 314 314 313 314 313 312 311 312 316 317 317 316 315 315 315 316 315 316 316 314 315 317 316 316 316 315 317 318 319 320 319 320 318 318 321 316 313 312 313 320 323 317 314 313 319 329 326 324 327 325 325 327 324 324 323 319 317 318 319 321 321 322 322 323 323 318 316 319 317 315 317 317 316 316 315
312 316 319 319 320 320 320 320 320 319 316 312 311 314 314 313 314 314 313 314 316 317 318 318 317 315 315 316 316 315 315 318 316 315 316 316 317 316 316 318 318 319 321 318 317 318 321 321 317 316 315 314 319 322 320 319 318 319 323 324 325 326 327 331 328 322 323 322 315 313 317 321 322 322 321 320 319 319 316 313 314 313 314 315 315 315 315 315
310 313 317 319 319 319 319 319 319 318 314 311 312 315 315 314 315 315 314 314 317 319 319 318 316 314 315 317 318 315 315 317 316 316 317 316 318 317 317 318 316 320 325 319 317 320 320 320 319 318 318 316 317 318 321 323 318 318 321 322 324 327 330 333 330 326 326 325 319 314 319 326 328 328 322 314 312 314 315 316 316 315 315 314 313 313 314 314
309 311 314 317 318 318 318 319 319 318 314 312 314 315 314 315 315 316 314 312 317 322 319 316 316 316 316 319 319 315 315 317 316 316 318 317 318 317 316 317 315 319 324 318 318 319 317 322 323 317 314 316 317 315 318 321 319 318 319 321 323 325 325 324 324 323 323 324 323 318 321 326 325 324 319 312 313 314 312 312 314 315 315 313 313 313 313 313
310 310 312 314 316 317 318 318 319 317 314 313 314 314 314 315 315 316 315 312 316 322 318 316 319 319 317 318 318 315 314 318 317 317 318 317 318 317 316 317 315 316 317 315 320 321 319 323 320 313 313 314 314 315 314 317 320 318 317 320 320 318 320 322 321 317 316 320 323 321 323 325 323 322 320 317 319 318 314 312 312 313 314 312 313 315 313 313
311 311 311 311 313 315 317 318 317 316 314 312 313 314 314 314 314 315 315 312 314 318 318 318 319 319 318 318 318 317 316 318 317 317 318 317 318 319 317 317 315 314 315 314 320 322 321 323 318 314 317 313 309 313 313 311 316 320 321 320 317 316 322 325 324 323 322 323 324 322 323 325 325 325 324 319 320 320 319 316 311 311 313 312 315 317 314 313
312 311 311 310 311 313 315 317 316 315 314 313 312 314 314 314 313 313 314 314 315 318 318 318 317 318 319 318 318 317 316 317 317 317 318 317 318 319 316 317 316 314 314 314 317 321 320 321 320 314 317 314 310 315 317 312 312 317 320 318 318 323 325 323 323 327 327 326 326 323 320 322 322 323 323 321 324 328 325 320 317 314 312 312 317 318 314 312
312 312 311 310 309 311 313 316 316 314 315 314 312 313 314 313 312 312 313 313 315 318 318 316 317 318 318 318 318 317 316 317 317 316 318 317 318 318 315 317 317 314 313 313 317 322 319 319 322 314 313 314 314 316 321 318 312 313 315 315 318 323 323 322 322 323 325 326 327 325 322 323 322 322 324 322 324 328 326 327 327 317 312 315 319 319 315 313
312 312 312 311 310 310 311 315 315 314 315 315 313 313 313 313 312 312 313 313 314 317 317 316 317 318 319 318 318 318 317 317 316 316 318 317 317 318 315 316 318 315 313 312 315 321 320 318 320 316 312 315 318 318 319 319 316 315 318 317 317 318 319 322 321 320 325 326 327 327 324 325 325 322 323 323 324 325 325 329 326 315 314 319 320 318 316 314
311 312 312 312 311 310 312 314 314 314 314 315 314 313 312 313 312 312 312 312 312 314 314 316 318 317 318 318 317 318 317 316 316 316 317 316 317 318 316 314 317 316 314 315 316 318 320 320 322 320 316 317 320 318 315 317 317 317 318 318 318 317 319 321 320 319 321 322 327 328 323 324 329 323 320 324 329 325 320 320 318 315 316 320 320 318 317 315
310 311 312 312 312 312 313 313 312 313 314 314 314 313 312 313 313 312 312 312 312 313 313 316 317 317 318 318 318 318 318 317 316 315 317 316 316 318 317 314 314 314 315 316 317 316 319 324 324 322 319 318 318 314 310 313 317 316 317 319 318 317 319 322 323 322 320 320 322 322 322 323 325 323 321 320 320 316 311 311 312 315 317 319 318 318 317 316
308 310 311 312 311 312 314 314 312 312 314 314 314 314 312 312 313 313 312 312 312 313 314 315 316 316 316 317 318 318 318 318 317 316 317 317 316 315 315 313 313 314 315 317 317 315 318 322 322 321 322 320 319 315 310 310 314 315 316 319 318 317 319 322 324 322 323 323 321 320 323 322 318 320 315 308 307 309 309 310 311 313 317 319 318 318 318 316
308 308 310 311 312 313 315 315 314 313 313 314 314 314 313 312 313 313 313 313 313 313 314 314 315 315 316 317 318 318 318 318 318 317 316 318 318 315 313 313 314 315 316 317 317 316 318 321 322 322 324 323 321 320 316 313 314 317 319 319 318 318 318 319 320 320 322 325 323 322 324 321 319 321 315 309 312 313 309 310 311 312 316 319 318 317 317 317
307 308 308 310 313 315 315 315 314 314 314 314 314 314 314 313 313 313 313 313 312 313 313 313 314 315 316 318 317 318 318 318 318 318 317 318 318 314 312 314 314 314 315 316 315 315 318 321 321 321 322 322 321 322 322 317 314 317 321 319 317 318 318 318 319 320 321 323 321 321 322 320 319 319 317 317 320 319 313 312 313 314 316 318 318 318 317 317
306 308 309 310 312 314 314 313 313 313 313 314 314 314 314 314 314 313 313 313 313 313 313 314 314 315 316 317 317 318 319 317 318 320 319 319 320 316 313 313 314 314 314 314 314 317 322 321 319 319 321 321 320 321 321 320 317 317 319 318 316 316 316 317 319 320 321 323 321 320 320 321 320 318 320 321 323 326 320 312 312 315 317 318 318 317 317 318
304 307 309 310 311 312 313 313 313 313 313 313 313 313 313 314 314 313 313 314 314 313 313 314 315 315 316 317 317 318 319 318 319 320 319 319 319 317 314 312 313 314 314 314 313 319 325 322 318 320 321 319 320 321 319 320 319 319 318 317 316 316 315 317 319 319 322 323 323 321 320 321 320 318 321 323 325 328 322 312 312 316 317 317 319 317 317 318
303 305 308 310 311 312 313 313 313 313 313 313 313 313 313 313 313 314 314 313 313 314 314 315 315 316 316 316 317 318 318 319 319 319 319 317 318 318 316 314 313 313 315 315 314 318 324 322 319 321 320 319 319 320 320 321 320 319 319 318 317 316 315 317 317 318 320 321 321 321 322 322 320 318 320 321 319 320 319 314 315 317 316 317 317 317 317 317
303 304 305 307 308 309 310 311 312 313 313 313 313 312 313 313 313 313 314 314 314 314 314 315 316 316 316 316 317 317 318 319 319 318 318 318 319 320 319 318 315 311 313 317 316 315 320 323 323 321 320 320 319 319 321 321 319 319 319 318 317 316 315 316 317 317 318 319 320 320 322 321 319 318 319 319 316 315 315 315 315 315 316 316 316 316 317 317
302 303 304 305 305 307 307 307 309 312 313 313 313 312 312 313 313 313 313 314 314 314 314 315 315 315 316 316 316 316 317 317 318 319 318 318 319 320 319 321 319 314 312 316 317 313 315 321 323 321 320 321 319 319 321 320 319 319 319 318 317 317 316 316 316 317 317 318 318 319 320 320 317 316 317 316 315 314 315 314 314 315 315 315 316 316 316 317
301 302 303 303 304 306 307 306 307 310 312 313 313 313 313 313 313 313 313 313 314 314 314 315 315 315 316 315 316 316 316 316 317 317 317 317 317 318 318 318 318 318 315 314 315 315 315 318 320 320 321 321 319 321 321 318 317 318 318 319 318 316 316 315 315 316 316 317 318 318 319 319 317 316 316 315 314 313 313 313 314 314 315 314 314 315 316 317
300 301 302 302 303 305 306 307 307 308 310 311 312 312 313 313 312 312 313 313 313 314 314 314 314 315 315 316 316 316 315 315 316 315 316 316 315 316 317 315 314 317 316 314 314 315 315 317 319 320 321 321 320 321 320 317 318 319 319 319 317 316 316 315 315 315 315 316 318 318 318 317 317 317 317 317 317 314 312 312 314 315 314 314 314 315 316 316
Wind_Speed
13 13 12 11 11 10 9 9 9 9 9 9 10 10 10 10 11 11 11 11 11 11 9 8 7 6 5 4 4 4 4 3 2 2 3 5 5 4 3 4 3 2 2 2 3 2 1 0 1 2 3 4 5 4 5 5 3 3 3 4 3 4 4 5 7 7 4 4 8 11 12 9 6 7 8 5 7 10 10 10 10 14 13 11 13 12 18 20
13 12 12 11 11 10 10 9 9 9 9 10 10 10 11 11 11 11 11 11 11 11 9 8 7 6 5 4 3 3 4 3 1 2 3 4 5 5 5 5 3 2 2 2 2 2 2 1 1 2 3 4 5 4 3 4 4 3 3 4 3 5 4 4 7 9 4 3 10 12 11 11 9 11 12 5 4 7 6 7 9 11 12 13 14 14 19 20
12 12 11 11 11 10 10 9 9 9 9 10 10 11 11 11 11 11 11 12 11 10 8 8 7 6 5 4 3 3 3 3 2 0 0 2 4 7 7 5 3 2 2 0 0 1 2 1 2 3 4 5 5 4 4 5 4 2 4 3 4 6 3 3 5 10 7 5 12 12 9 10 9 12 12 6 5 5 5 8 9 12 14 15 15 16 20 21
11 11 10 10 10 9 9 9 8 8 9 9 10 10 11 11 11 11 12 12 11 10 9 8 7 6 5 4 3 3 2 2 3 2 3 5 8 9 8 7 5 4 3 2 1 0 1 2 2 2 4 4 4 4 4 6 3 2 4 3 5 6 2 2 3 7 8 8 13 11 7 7 9 12 11 8 6 4 11 15 14 13 14 15 16 17 20 21
11 10 10 9 8 7 7 8 8 8 8 8 9 10 10 11 11 12 12 11 10 9 9 8 7 6 5 4 3 3 2 2 4 4 4 6 9 10 9 8 5 5 5 4 2 1 1 2 3 2 3 2 4 3 3 5 4 3 1 1 5 6 2 2 4 5 9 11 12 10 7 7 9 9 11 12 7 6 11 15 16 14 12 13 16 17 20 22
12 11 10 9 8 8 8 7 7 7 8 8 8 9 9 10 11 11 11 10 10 9 9 8 7 6 5 4 3 4 2 2 5 6 5 6 7 9 10 7 4 3 4 5 4 1 1 2 3 2 3 2 3 3 2 4 3 2 1 1 4 5 2 5 6 7 10 11 10 10 7 8 9 6 10 15 13 10 9 10 13 15 13 13 16 18 20 21
14 13 12 11 10 9 9 8 8 8 8 8 8 8 9 9 9 10 10 9 9 9 8 8 7 6 5 5 4 4 3 2 7 6 5 7 6 7 8 6 3 2 3 5 5 1 1 2 4 4 4 3 1 2 3 4 4 4 1 0 3 4 3 7 7 7 9 9 9 9 7 8 10 6 6 15 20 17 13 11 11 15 16 15 17 18 18 19
14 13 12 11 10 9 9 8 8 8 8 8 8 8 9 9 9 9 9 9 9 9 9 8 7 7 6 5 4 4 4 4 8 6 6 7 5 5 6 5 5 5 5 5 5 2 2 3 5 5 3 2 2 1 2 3 4 4 2 2 3 2 4 7 6 7 8 7 8 7 7 7 9 7 5 14 19 18 17 15 12 14 16 16 18 18 18 18
13 12 12 11 10 9 9 8 8 8 8 8 8 9 9 9 9 9 9 10 10 10 9 9 8 7 6 6 4 3 4 6 8 7 6 6 5 4 5 5 6 7 6 4 3 2 1 4 4 3 2 2 3 2 2 2 2 1 4 4 3 2 4 7 7 8 8 8 7 6 5 5 7 5 9 16 18 17 17 15 14 15 17 18 19 19 18 18
12 12 12 11 11 10 10 9 9 9 9 9 9 9 9 9 10 10 10 10 10 10 10 9 9 8 7 6 4 3 4 7 10 8 7 7 5 4 4 4 5 5 4 2 1 1 2 4 4 5 4 3 4 2 3 2 1 3 4 2 1 1 3 6 8 9 8 7 8 8 5 5 5 3 7 14 14 16 17 15 16 16 17 19 19 20 19 18
12 12 12 12 12 11 11 11 10 10 9 9 9 10 10 10 10 10 10 11 11 11 10 10 10 9 8 7 7 4 3 9 11 9 8 7 6 5 5 4 3 3 3 3 2 2 2 3 3 4 2 2 3 2 3 3 3 3 2 1 3 3 5 7 9 10 8 5 8 9 4 3 2 3 10 12 11 15 17 16 17 18 18 19 20 21 20 19
13 12 12 12 12 11 11 11 11 10 9 9 9 10 11 11 11 11 11 11 11 11 11 11 10 10 9 8 11 8 4 9 12 10 9 8 6 5 5 4 3 3 3 3 2 2 2 2 3 2 2 4 3 2 3 3 3 3 4 2 5 7 5 6 6 8 8 3 5 6 2 4 4 9 13 11 11 14 16 18 19 20 20 20 21 22 22 21
14 13 13 13 12 12 12 11 11 10 9 9 9 10 10 11 11 11 12 12 12 11 11 11 10 10 8 8 11 10 7 10 12 11 11 9 7 6 5 5 4 4 4 4 2 2 3 2 2 3 4 5 2 3 3 3 3 1 4 2 4 7 5 3 0 6 9 3 5 7 3 6 8 13 13 9 12 16 17 20 21 21 22 22 23 24 24 23
15 15 14 14 13 13 12 12 11 10 10 10 10 9 9 10 10 11 12 12 12 11 11 11 10 9 9 8 9 10 11 12 13 13 13 11 7 6 6 5 5 5 5 5 3 3 3 3 3 3 4 4 4 5 2 4 4 1 1 2 2 2 4 5 1 8 8 4 7 8 2 7 8 11 10 11 14 16 19 21 22 23 24 25 25 26 26 26
16 16 16 16 15 14 14 13 13 11 11 11 10 9 9 9 10 10 11 11 11 11 11 10 9 8 7 9 10 10 12 14 16 16 14 12 9 8 8 7 7 7 6 6 5 4 3 3 2 3 4 5 6 5 3 4 3 3 1 3 3 1 5 8 1 9 6 3 8 7 2 7 9 9 7 13 16 17 20 21 23 25 25 26 27 27 28 27
17 18 18 17 17 16 16 15 14 13 12 12 11 10 10 9 9 10 10 11 11 11 10 8 9 8 5 7 9 9 13 16 17 18 17 14 11 9 8 8 8 8 7 7 7 6 5 4 3 3 3 4 4 4 4 3 4 4 1 3 2 2 3 6 2 6 3 3 4 3 2 4 5 3 2 10 17 19 20 22 24 26 26 28 28 29 29 28
17 18 19 19 19 18 18 17 16 15 14 13 12 11 10 10 9 9 9 9 9 10 8 6 6 6 6 8 9 10 14 17 18 19 18 15 13 11 9 8 9 9 9 8 7 6 5 4 4 2 2 3 3 5 3 2 4 4 1 2 4 3 2 3 4 4 2 3 3 3 3 7 7 4 3 8 15 19 22 24 26 26 28 28 29 30 30 30
14 17 19 20 20 20 20 19 18 17 16 15 14 13 11 10 9 8 8 9 9 6 5 7 5 1 7 12 11 11 12 14 17 17 18 16 13 11 10 8 9 9 8 6 5 5 5 3 4 1 3 3 2 5 3 5 4 3 3 2 3 3 3 4 4 3 4 2 3 4 4 11 12 12 14 12 14 19 23 26 26 26 28 29 30 32 32 32
11 13 15 18 20 21 22 22 21 20 19 17 16 14 12 10 8 7 9 10 10 6 2 9 12 4 2 9 13 13 10 10 14 17 17 16 14 12 11 9 8 9 7 4 3 4 5 3 4 2 1 2 5 6 8 8 7 6 6 4 4 4 4 5 5 5 5 3 4 7 7 11 12 13 15 14 16 21 24 25 25 27 29 30 32 34 34 34
9 10 12 14 17 20 21 22 22 22 21 18 17 14 10 6 3 4 10 15 17 14 8 9 15 12 3 2 8 12 10 10 13 17 17 16 15 13 11 9 7 7 5 4 3 2 4 3 2 5 7 8 9 9 7 5 6 5 5 4 4 4 5 5 5 6 2 4 6 8 8 11 12 11 14 12 12 18 23 24 27 30 32 33 35 36 37 36
11 10 11 12 14 16 19 21 22 22 22 20 18 14 9 8 5 3 8 14 19 22 19 13 13 16 11 7 6 9 10 10 13 17 17 16 16 12 10 9 6 3 2 3 4 2 4 4 7 10 9 8 8 7 5 5 5 4 5 3 3 4 6 7 4 5 0 4 6 5 6 11 12 12 16 12 8 15 25 26 30 34 35 36 37 38 38 36
13 13 12 12 13 14 16 19 20 21 22 20 19 16 12 12 12 9 6 7 13 19 22 22 18 17 17 14 11 10 10 9 12 18 18 18 18 12 11 9 5 3 2 4 5 2 2 4 12 10 5 6 3 4 6 4 2 2 3 2 3 3 4 6 4 4 0 4 4 3 4 10 13 11 14 16 14 21 30 31 34 36 34 37 39 40 39 37
15 15 14 13 13 14 15 17 18 20 20 20 20 19 16 14 14 13 9 5 10 15 20 24 25 24 22 19 17 15 14 10 11 19 22 21 20 15 12 9 4 4 3 4 6 4 2 6 11 8 9 8 3 4 6 3 1 2 3 3 4 3 2 4 4 4 0 2 2 3 4 9 12 8 11 20 23 26 32 32 35 36 35 38 39 39 39 39
17 16 16 14 13 15 15 15 18 18 18 19 20 20 18 16 13 11 9 5 7 11 17 21 24 28 28 22 20 19 18 15 13 18 24 25 22 14 11 9 5 4 5 8 8 6 6 6 3 7 9 8 5 4 6 5 3 4 5 6 5 4 6 6 4 4 3 3 2 2 5 7 9 7 8 12 13 19 28 27 31 38 39 39 38 37 38 39
20 19 17 15 15 16 15 16 18 16 16 18 19 18 18 17 12 8 5 3 5 6 11 16 19 25 29 25 22 19 17 16 16 18 24 29 26 13 8 10 6 4 7 7 5 5 8 5 4 8 5 6 7 4 5 7 4 5 5 10 10 9 8 6 2 4 4 5 3 2 4 6 5 5 7 6 4 10 17 17 25 37 37 36 37 39 40 38
24 22 19 17 17 17 16 16 15 13 15 17 15 16 18 15 9 6 2 2 4 4 4 9 11 13 20 23 23 17 7 11 19 21 22 28 29 15 7 7 5 4 7 5 2 3 5 4 6 7 5 7 6 4 6 7 5 3 5 9 11 8 6 4 2 2 0 4 3 2 3 6 7 6 7 5 5 10 11 10 20 32 31 31 35 37 38 37
27 26 22 20 19 20 20 16 13 13 14 13 13 16 17 14 10 7 3 3 5 5 7 9 9 9 13 18 27 19 3 6 15 20 25 28 27 17 7 5 3 3 6 5 2 3 4 5 4 6 6 6 5 4 6 8 8 3 5 5 8 7 7 7 6 4 3 3 4 1 3 4 7 7 5 3 6 10 12 12 17 26 29 30 33 35 35 36
27 26 26 24 22 24 22 16 16 15 11 8 11 17 17 15 13 8 5 1 3 5 6 7 10 12 11 18 30 19 5 11 11 14 27 29 26 15 6 9 7 6 8 7 4 4 3 7 7 7 5 4 6 5 7 11 5 5 3 6 6 6 6 4 5 3 1 3 5 5 2 3 7 6 5 3 4 9 13 13 14 22 28 29 32 34 34 34
25 25 27 28 25 25 23 21 20 14 9 8 10 16 19 18 14 7 4 2 3 3 4 7 8 10 12 18 23 13 7 7 3 12 25 26 25 13 3 9 8 6 7 6 5 3 1 4 7 8 6 6 5 2 8 12 5 4 6 7 5 5 5 4 5 3 2 2 8 8 4 3 6 4 3 2 2 8 12 11 12 18 23 23 23 25 26 28
24 24 25 27 29 28 25 27 24 15 12 11 13 20 24 19 10 4 3 3 2 1 4 7 7 9 15 14 8 4 5 2 4 15 16 14 20 11 2 7 6 5 2 4 2 3 2 1 2 4 4 5 5 3 2 7 6 8 7 6 6 6 5 3 3 3 2 3 9 9 8 6 6 3 5 4 4 7 8 8 10 14 18 16 14 15 17 19
22 22 21 24 30 32 30 33 30 21 16 12 18 26 23 12 4 4 7 1 2 2 4 3 3 8 16 13 6 4 2 2 7 15 9 5 10 7 3 5 3 4 1 5 3 4 4 1 1 3 4 6 8 5 3 2 6 7 4 5 4 4 4 4 4 3 1 6 6 4 5 7 7 6 5 6 6 7 8 8 9 11 15 14 9 12 14 15
19 20 19 20 28 34 36 37 30 23 20 16 23 27 16 4 2 4 4 2 2 4 5 4 4 7 12 10 7 7 4 2 7 10 7 4 6 7 6 6 5 3 2 7 4 3 2 4 3 1 3 7 7 4 4 3 2 4 4 6 4 3 3 3 3 0 3 7 4 1 3 4 8 9 8 9 10 11 11 13 13 14 19 19 12 11 12 13
18 19 18 18 26 35 38 37 31 25 24 23 27 20 6 3 7 8 7 4 3 3 3 4 4 6 11 8 5 5 3 2 7 7 4 5 5 7 7 6 6 4 2 5 3 1 3 6 2 1 3 8 9 6 3 1 4 5 5 6 5 2 0 3 4 2 4 6 3 1 2 3 5 6 11 14 15 18 18 20 22 23 26 25 19 15 15 16
20 20 20 18 22 31 34 35 34 28 26 29 26 13 3 5 7 10 13 11 3 2 2 4 6 6 8 5 4 6 4 3 6 6 3 6 6 7 7 7 7 2 3 4 3 6 5 6 5 6 4 10 12 8 6 6 5 5 4 5 5 5 5 4 4 4 5 4 4 2 2 4 3 3 8 11 14 19 24 27 30 32 33 29 25 23 22 22
20 21 23 22 21 24 30 36 36 30 30 32 18 7 8 8 5 7 11 9 2 3 3 3 8 7 5 2 2 6 5 3 5 5 4 7 7 8 8 9 10 6 5 4 2 4 5 7 6 3 3 12 12 6 7 8 3 3 2 4 4 6 5 2 3 5 2 3 4 3 3 5 4 5 8 8 10 14 19 24 27 32 32 26 26 27 25 23
19 22 24 26 26 24 28 37 38 33 35 30 9 5 10 9 5 5 6 5 4 3 5 3 4 4 5 3 2 6 4 1 6 5 3 5 4 7 8 7 12 13 9 8 3 3 4 5 4 1 1 5 6 5 6 4 4 2 3 4 3 4 6 1 3 1 3 3 5 3 5 5 3 7 8 6 9 11 11 15 20 26 25 21 25 28 25 23
18 21 25 29 30 26 26 36 37 34 37 24 6 7 9 7 6 4 3 5 7 7 7 3 3 5 7 4 4 8 4 1 5 5 4 4 3 7 9 7 11 17 16 10 3 2 5 3 4 2 2 3 1 5 4 3 4 5 4 6 2 2 2 2 2 3 3 4 5 2 5 4 1 5 5 0 7 11 11 12 15 21 22 22 28 31 27 22
18 20 25 31 31 27 26 30 33 37 33 14 6 9 7 8 12 9 4 4 7 8 7 7 6 6 7 6 5 7 6 3 6 6 5 4 5 9 12 7 8 18 22 13 3 3 5 2 4 1 2 3 2 4 2 4 2 4 4 5 4 2 1 2 2 2 1 3 5 3 4 4 5 6 3 3 8 10 11 11 10 15 19 23 30 31 27 22
18 17 22 29 30 28 25 25 32 38 23 6 7 9 6 11 17 15 9 5 5 7 9 9 7 4 5 8 6 6 8 7 8 7 5 5 5 8 15 12 8 16 23 18 7 2 3 3 3 1 1 1 2 2 4 1 2 3 2 3 2 2 4 3 3 3 3 3 3 3 3 4 6 7 7 10 11 9 9 9 8 12 19 24 27 27 25 23
15 12 15 23 25 23 24 26 31 28 12 6 10 9 7 9 11 16 18 10 3 4 7 7 6 5 5 7 5 5 8 8 8 8 6 7 6 5 12 14 6 7 17 18 9 1 2 4 4 2 2 1 2 4 8 10 7 4 4 5 3 1 2 1 1 2 4 3 2 3 6 6 5 5 9 11 10 10 10 9 7 12 19 21 22 23 24 22
14 10 10 16 16 17 26 26 21 15 6 6 10 9 9 7 6 16 24 17 7 6 6 5 5 6 5 6 5 5 6 6 7 7 4 7 9 5 10 17 11 8 9 9 8 6 3 4 4 2 1 4 5 4 6 10 9 7 7 9 9 7 4 3 3 1 2 2 4 2 7 9 5 4 7 8 7 8 9 8 8 14 20 19 19 21 22 20
14 10 10 13 13 16 26 18 9 10 8 9 14 11 8 5 4 11 18 17 12 8 4 3 5 6 4 5 6 5 6 6 7 7 5 8 11 7 10 20 22 19 14 8 12 12 5 3 4 3 4 6 6 3 2 4 3 2 3 5 7 7 6 6 5 3 2 2 3 4 4 10 3 4 5 5 5 5 6 9 11 17 20 19 20 20 21 21
15 16 15 14 17 24 24 9 5 8 6 12 20 13 8 8 5 7 12 15 12 8 5 3 3 7 6 4 6 6 7 6 7 10 8 7 11 10 10 20 24 20 12 6 7 8 4 3 4 2 2 3 4 4 2 1 2 1 2 2 5 7 7 5 4 4 4 4 4 4 5 9 2 1 2 5 6 5 7 11 13 17 20 18 19 20 19 20
16 23 21 15 21 29 20 5 6 9 7 13 14 9 11 13 9 9 11 13 13 8 7 6 4 7 7 3 4 6 8 7 7 11 12 7 7 10 14 22 22 15 11 9 10 11 7 4 5 4 1 3 4 3 2 0 2 3 3 3 7 10 8 3 1 2 2 8 9 5 8 9 2 3 3 3 4 5 9 12 11 14 18 17 17 19 18 17
12 17 19 19 29 34 23 13 11 9 10 15 12 8 11 9 11 17 14 12 15 11 7 8 7 7 5 3 5 6 9 11 8 9 10 7 4 4 14 25 23 16 15 15 16 17 10 5 7 8 8 9 8 7 6 4 3 2 4 7 10 12 12 6 2 3 6 9 8 7 11 9 1 2 4 3 3 5 10 10 10 14 18 16 17 19 17 16
8 6 7 14 28 34 30 27 22 9 8 13 10 10 13 7 8 19 17 12 16 17 11 7 7 8 7 7 8 8 10 13 11 6 7 9 5 1 11 23 25 22 17 11 13 13 4 4 11 13 13 15 12 6 5 9 8 7 10 12 12 12 13 10 5 7 8 3 4 10 14 13 9 5 3 5 4 5 8 8 10 15 16 15 18 19 17 18
8 4 4 8 15 20 21 24 21 10 9 13 7 6 15 13 6 11 16 15 17 20 14 7 6 8 9 11 12 11 11 10 10 10 9 9 4 2 6 15 21 25 18 7 11 10 2 3 13 15 16 17 14 8 9 12 13 14 15 14 14 13 13 12 12 15 8 3 8 15 10 12 20 12 7 8 6 4 7 11 16 18 17 18 21 22 22 22
11 6 8 8 5 7 10 16 18 13 12 13 8 5 13 17 11 8 11 14 16 18 12 7 10 12 13 15 12 9 10 8 9 14 13 7 3 1 1 3 8 16 13 7 8 7 2 5 10 12 14 17 16 10 10 11 11 13 16 17 17 16 16 18 21 21 11 7 16 17 10 13 24 14 8 9 9 10 16 20 22 23 24 27 27 27 27 25
16 10 13 13 6 4 8 12 17 18 16 13 9 8 11 16 16 12 9 8 10 13 12 10 14 18 17 15 11 9 11 10 11 14 10 6 5 3 3 2 3 6 6 5 5 3 3 4 5 8 10 15 17 10 9 11 9 9 14 17 18 19 22 24 24 22 16 14 20 18 9 16 20 8 5 10 13 19 23 22 22 24 27 30 29 29 29 29
18 11 10 12 9 11 14 12 10 12 16 15 11 11 12 14 17 15 12 11 8 9 14 17 19 18 16 14 13 13 14 14 16 14 8 7 7 6 6 4 3 2 2 4 2 1 3 3 2 4 5 12 13 6 7 10 9 9 11 12 15 20 22 23 21 18 15 15 20 17 14 18 13 3 8 16 15 17 18 18 22 25 27 29 28 29 31 31
27 22 16 10 5 7 10 7 5 7 10 12 12 12 14 17 19 14 12 18 18 11 13 20 21 16 13 15 15 17 20 21 17 10 8 12 11 7 7 6 7 7 4 5 3 1 3 3 2 4 5 12 9 6 8 7 5 6 9 11 17 18 16 16 15 14 14 16 18 15 14 18 11 4 9 14 10 10 14 19 25 29 29 28 28 30 31 31
30 29 26 16 6 5 6 3 3 6 6 7 11 13 13 15 18 14 9 14 20 21 20 21 21 14 11 14 20 28 34 32 20 9 8 14 11 4 5 7 9 10 7 5 3 2 5 4 2 4 6 11 5 7 8 5 3 7 12 16 20 14 10 11 12 15 17 15 13 12 14 18 15 9 10 10 7 9 15 22 28 30 29 27 27 29 31 32
Wind_Direction
200 200 202 205 208 212 216 217 216 214 212 208 206 202 200 199 196 195 193 191 189 188 191 197 203 208 215 214 217 226 222 225 268 265 233 216 219 225 210 182 178 204 223 231 214 225 258 265 158 111 94 80 63 64 65 58 65 84 100 89 124 170 188 180 179 191 167 185 194 182 176 156 161 174 165 154 156 159 164 186 190 197 215 209 199 197 193 194
201 204 206 209 212 215 215 214 212 211 211 209 207 204 203 201 200 199 196 194 190 192 198 203 208 212 217 219 222 225 224 236 257 270 256 234 224 200 169 158 170 201 219 239 226 238 252 241 149 108 98 88 58 58 67 43 51 77 102 95 176 199 199 192 193 197 180 183 183 178 181 172 173 174 166 166 167 157 157 185 186 194 203 196 198 201 198 199
205 208 212 213 215 216 215 213 211 209 208 208 207 207 205 203 202 201 198 195 193 198 205 210 214 214 219 225 224 221 235 242 213 9 293 183 176 164 153 150 147 154 160 135 204 241 242 214 148 114 96 94 62 61 58 34 41 70 92 89 224 214 207 233 208 200 213 202 170 171 186 182 181 177 176 186 173 180 204 195 191 200 204 199 202 202 200 204
207 212 216 217 217 215 213 211 208 207 207 207 207 207 207 204 202 201 198 196 198 205 210 215 217 215 222 223 222 222 231 208 174 104 91 134 146 151 148 143 124 103 89 48 35 119 197 168 155 136 95 91 53 62 41 26 34 49 99 143 210 182 161 224 187 195 212 192 172 169 175 186 186 183 189 175 147 238 235 214 214 220 216 210 205 203 203 208
201 207 210 209 209 207 206 204 202 201 203 205 206 206 205 203 201 199 197 200 205 211 216 221 222 221 225 222 227 208 140 106 161 128 108 138 145 153 151 147 124 89 66 43 27 75 140 131 144 124 86 77 36 59 29 28 67 65 50 216 170 149 131 167 145 159 175 169 167 162 161 187 185 191 203 184 170 231 232 224 228 234 233 224 215 208 205 211
192 196 197 197 194 194 197 196 196 197 199 201 201 202 202 202 201 198 200 205 210 216 220 225 227 229 227 224 230 203 169 109 159 139 129 153 153 161 160 160 145 88 40 33 20 1 111 102 135 108 66 59 24 66 52 24 72 95 353 340 153 172 192 159 145 146 160 163 168 170 179 185 177 206 221 206 217 230 236 240 233 233 235 230 221 214 211 214
186 188 189 189 188 189 192 192 193 195 195 197 198 201 202 202 202 202 205 210 215 219 222 228 232 234 232 231 227 215 231 194 164 151 148 162 164 173 173 183 203 276 329 6 358 339 108 94 119 99 74 77 58 88 52 35 77 108 122 41 153 204 209 165 155 159 171 182 185 185 192 192 190 212 231 222 233 240 248 253 238 233 231 225 219 216 216 217
186 187 187 188 190 190 191 193 197 198 196 195 198 200 202 204 205 207 209 214 219 221 225 230 233 236 238 237 237 241 244 189 171 166 159 168 172 183 190 210 243 278 294 323 335 333 105 101 110 100 81 89 134 147 49 51 53 79 142 192 147 164 193 176 175 182 193 203 200 200 201 204 205 214 248 237 238 242 247 250 241 231 226 223 219 217 219 218
190 190 191 193 195 195 197 200 203 207 205 202 205 205 205 207 209 211 211 216 221 224 228 231 234 238 240 239 240 252 232 184 178 175 162 170 175 181 205 233 256 272 282 301 316 296 135 109 104 108 134 135 124 92 53 76 341 95 141 155 147 146 186 190 202 199 204 213 204 207 218 227 218 231 264 249 241 243 243 242 238 230 225 222 218 218 219 220
199 200 199 199 199 199 202 205 209 215 216 214 216 216 215 215 215 216 217 220 223 227 231 232 235 236 240 241 226 233 224 189 184 183 168 168 174 185 212 236 254 261 268 260 264 289 138 116 101 113 125 129 120 63 31 70 127 131 120 118 158 208 224 215 220 214 210 218 211 205 223 246 221 208 255 247 236 236 235 232 230 226 223 221 218 217 219 223
209 209 209 208 206 204 204 205 208 213 218 220 222 222 224 225 224 223 224 226 227 230 232 234 237 237 240 237 215 217 216 192 188 187 179 173 178 193 209 219 227 225 220 200 220 259 158 135 116 129 136 127 120 52 45 79 101 97 74 308 303 321 273 233 224 223 211 222 223 207 222 259 192 196 242 245 234 230 228 225 224 221 222 220 219 219 221 225
220 219 218 216 214 213 212 210 209 209 214 218 222 224 225 228 230 230 231 232 233 234 236 236 238 237 240 238 229 231 206 188 191 191 187 184 189 197 206 210 201 191 185 175 211 234 174 152 129 137 152 145 135 58 76 82 73 59 49 325 312 355 322 239 226 219 198 215 219 186 256 274 209 224 238 240 228 223 221 222 223 221 221 221 222 224 227 230
228 228 228 227 224 222 221 218 215 212 214 217 220 223 225 227 230 232 234 236 237 238 239 240 240 241 242 243 238 233 213 197 195 197 195 194 202 206 207 205 198 191 179 168 178 175 155 147 126 125 128 136 135 110 118 69 58 41 48 37 324 359 334 263 234 189 180 203 181 153 261 269 242 239 232 228 221 213 214 219 223 223 223 224 225 229 232 234
236 235 236 236 234 232 229 228 224 220 220 222 221 224 230 231 231 233 234 236 238 239 240 241 242 242 241 246 247 234 222 211 202 202 201 204 214 217 216 210 202 197 185 176 172 170 162 140 119 128 119 111 125 125 92 24 40 346 12 25 8 4 279 295 29 158 160 208 177 148 248 264 267 261 235 227 222 212 216 221 223 225 226 228 230 233 238 240
242 241 240 241 241 239 238 237 233 230 230 229 228 229 234 239 240 237 236 237 238 238 238 239 240 241 246 251 249 236 225 216 209 206 206 211 222 226 222 215 208 205 196 191 189 183 179 175 149 117 108 110 121 114 31 0 19 26 346 306 346 165 264 310 262 167 156 199 173 149 247 267 276 279 245 220 216 213 222 226 226 229 229 231 235 237 241 243
242 244 243 243 243 243 243 242 240 239 237 238 239 238 240 244 245 242 241 239 238 238 236 237 237 231 250 258 246 239 228 218 213 211 211 217 223 225 224 220 214 211 205 201 202 199 202 198 146 96 113 129 117 92 48 11 344 0 65 247 279 179 273 321 282 201 183 133 174 192 244 274 282 298 217 202 209 213 221 230 231 232 234 235 238 240 242 243
238 242 245 245 244 243 244 243 244 244 243 244 245 246 248 248 248 246 242 237 235 234 228 228 233 232 248 256 247 242 230 221 217 215 217 222 222 220 222 220 212 209 208 208 208 202 199 181 143 115 76 81 97 93 67 322 291 313 4 236 242 201 219 298 308 251 188 126 203 220 231 255 261 279 258 210 210 213 221 233 235 235 237 237 239 241 243 244
236 238 242 244 245 245 244 244 244 245 245 245 248 250 250 251 251 247 237 231 222 214 220 213 192 226 250 239 234 236 234 225 219 217 219 220 218 216 212 213 215 211 202 202 203 181 174 141 115 110 25 32 86 108 145 224 207 198 194 204 248 235 216 250 286 237 161 127 226 200 240 258 265 273 264 244 220 217 227 237 239 239 239 240 241 242 244 245
234 237 239 241 244 245 245 244 243 244 244 244 247 250 253 255 251 244 230 216 199 178 205 210 192 168 233 228 228 234 237 226 216 216 217 213 212 210 202 205 214 201 174 165 189 160 150 103 84 104 230 207 197 170 190 204 167 162 175 159 185 220 248 237 253 248 180 155 230 215 230 253 263 271 265 251 224 223 237 244 243 244 243 241 242 242 244 245
235 238 242 243 244 245 246 245 244 243 243 243 243 244 246 236 226 247 224 214 214 213 224 220 207 207 215 239 232 230 228 219 213 211 209 207 205 200 191 192 192 183 168 163 181 159 136 130 162 212 213 200 203 199 189 162 133 122 128 141 185 203 264 256 255 285 198 164 244 230 230 253 257 264 269 259 224 223 238 245 245 245 244 243 242 243 243 245
240 239 242 246 246 247 247 246 245 242 241 241 237 233 227 204 195 243 222 224 234 232 235 242 226 220 228 249 243 224 215 207 208 206 202 200 194 187 186 181 159 168 217 145 124 111 122 160 223 227 211 193 199 194 155 122 119 98 121 177 245 209 252 256 244 301 188 171 263 251 238 260 257 256 267 259 210 226 237 239 245 246 245 245 244 245 245 245
241 242 242 245 246 248 248 246 246 242 240 238 232 227 226 223 227 239 241 255 257 245 240 240 236 229 228 233 234 221 205 194 204 204 197 191 187 188 184 170 151 169 195 115 103 63 98 221 242 230 163 124 135 158 151 148 143 106 122 163 262 241 270 279 276 317 83 179 267 288 257 264 260 254 260 250 228 241 246 243 248 250 247 247 247 247 247 244
240 242 240 243 244 245 246 247 247 243 239 236 233 228 228 234 237 242 253 281 276 260 246 240 238 233 226 224 225 215 201 197 204 200 194 187 186 192 182 163 150 143 155 170 154 138 164 248 251 207 146 131 115 122 133 135 192 198 167 170 246 250 264 276 289 319 327 196 267 297 294 274 267 260 256 252 244 249 255 252 255 255 251 252 252 252 250 246
242 241 238 240 244 244 245 246 245 244 240 236 236 231 229 234 236 244 253 272 284 263 250 245 239 234 229 225 224 215 207 210 210 199 195 188 180 184 188 172 137 130 185 198 177 176 215 257 251 148 153 164 148 124 136 153 234 242 203 194 221 226 218 232 285 324 333 342 351 330 305 281 267 257 253 261 255 255 259 256 257 257 254 255 255 254 252 249
241 243 241 236 240 245 244 245 243 241 239 236 236 228 223 228 230 242 252 279 286 262 251 242 236 237 232 225 222 211 208 219 219 207 199 194 185 173 181 178 155 174 206 197 180 225 250 250 126 121 147 164 152 163 176 172 206 275 228 204 213 216 221 238 317 3 0 327 329 29 297 280 291 273 258 283 307 267 262 253 252 256 255 254 252 252 251 249
237 241 243 237 240 241 236 240 244 243 240 238 232 219 214 215 211 215 189 22 288 238 200 211 218 231 221 214 205 190 206 234 218 211 202 200 195 177 159 171 160 196 191 172 185 246 246 213 129 123 143 154 162 210 217 177 158 270 247 206 209 202 201 216 178 100 256 261 280 90 209 268 306 289 254 263 273 265 266 258 255 258 257 253 254 255 252 249
234 235 237 237 238 236 231 233 240 239 236 236 225 208 203 194 179 180 145 11 282 191 153 182 189 193 202 201 189 177 198 202 190 205 201 197 196 185 179 175 145 197 164 134 231 247 194 186 125 117 127 136 167 220 220 168 146 237 253 177 176 177 188 197 168 184 235 264 305 18 164 262 290 274 261 262 267 272 273 267 264 262 259 256 257 258 256 253
236 231 231 233 236 239 240 238 239 239 234 238 221 200 188 176 168 154 123 308 258 149 150 180 175 183 188 184 184 178 140 143 152 198 196 191 193 188 204 199 172 186 172 153 220 259 159 180 184 164 151 165 193 214 182 157 158 246 221 126 143 156 163 157 138 186 294 25 296 283 140 250 265 263 300 323 265 271 270 263 264 263 262 261 261 261 261 258
239 234 231 233 235 238 243 243 240 241 237 231 208 187 175 166 159 125 93 231 217 125 155 169 163 175 160 163 184 182 135 140 128 180 182 186 191 187 211 206 182 166 188 189 214 247 135 192 194 167 168 203 208 228 171 167 187 199 135 94 78 78 81 84 106 132 48 41 256 250 160 229 263 238 268 320 232 253 263 263 263 267 270 270 267 267 265 261
239 239 238 238 233 227 233 240 236 231 224 211 186 174 165 157 145 123 177 220 220 154 138 157 170 167 149 150 190 199 138 127 102 147 163 180 188 187 121 176 167 130 200 299 249 241 314 43 178 168 186 186 139 66 157 172 154 134 110 67 48 34 41 41 59 84 47 264 250 237 178 197 267 245 221 231 211 226 246 262 270 273 274 272 273 277 274 267
240 238 239 242 238 227 225 234 234 223 214 196 174 168 160 150 125 171 198 267 340 176 124 145 174 152 155 159 180 189 142 72 132 147 154 164 178 184 122 146 138 90 343 298 278 307 336 39 230 211 183 139 105 66 28 92 130 120 89 81 71 348 10 16 0 51 227 248 253 251 162 178 237 255 237 244 248 238 233 244 260 272 272 271 286 295 286 275
243 237 236 242 244 235 227 233 236 222 210 194 173 167 158 149 200 203 201 13 335 197 161 176 190 166 172 173 175 174 146 133 164 163 161 150 168 190 189 184 166 121 260 242 241 332 285 234 274 313 193 165 123 80 36 29 101 109 98 111 104 325 354 345 303 118 236 251 262 337 122 184 237 251 252 255 258 249 237 236 244 257 266 271 285 294 290 282
242 235 236 240 244 240 234 237 238 219 201 186 170 162 152 187 195 202 199 190 210 202 151 154 153 159 163 164 185 170 134 174 179 172 165 148 172 206 225 224 180 148 202 201 191 231 265 290 291 115 234 196 167 156 167 191 182 163 147 143 145 146 178 270 267 268 264 268 288 266 184 245 266 259 241 236 238 242 247 254 258 263 268 272 276 275 275 277
239 233 233 238 245 245 240 237 234 221 192 173 165 158 182 213 197 197 204 210 219 40 70 117 107 131 156 169 206 168 151 224 179 158 157 151 172 209 228 233 210 142 103 152 177 183 218 281 212 181 197 186 185 191 167 138 162 188 155 140 160 161 171 217 220 231 257 285 301 277 201 201 208 257 245 238 246 248 252 259 264 268 271 274 276 272 267 266
242 235 230 233 241 245 242 235 234 224 188 168 163 168 187 203 204 200 211 218 224 36 28 80 101 127 186 249 259 185 180 223 174 151 165 172 189 203 199 208 201 170 140 181 218 167 204 262 236 215 161 167 181 187 129 110 145 223 113 121 193 185 167 207 207 182 192 300 296 235 225 215 208 272 271 260 267 258 253 257 261 265 269 272 273 270 266 263
246 238 232 233 232 235 237 233 233 220 186 166 162 204 195 207 201 183 198 197 185 119 92 78 83 126 198 225 247 214 206 154 156 159 196 202 222 209 200 210 196 186 184 186 193 148 182 271 281 356 63 174 182 167 136 139 176 164 139 178 209 170 146 175 266 63 84 266 269 199 238 288 312 283 275 252 255 263 264 261 258 260 266 272 272 270 268 263
250 240 238 235 230 231 231 229 226 206 181 167 175 205 199 227 218 182 178 171 167 149 135 174 186 162 189 200 212 209 198 113 158 173 192 193 239 211 204 227 200 195 201 191 198 199 168 255 291 118 182 260 168 122 88 50 128 128 183 200 150 79 105 117 246 343 44 253 273 218 234 276 286 274 307 279 232 252 259 255 257 263 266 269 270 271 270 265
254 252 247 240 234 228 224 228 219 194 180 175 204 206 198 223 219 207 188 151 149 160 180 212 198 169 182 192 202 195 182 177 178 188 190 182 237 209 190 211 204 200 206 196 206 242 166 223 296 84 186 272 32 111 77 8 82 126 177 180 128 133 215 120 171 233 201 248 285 289 254 241 202 227 271 217 216 233 249 252 256 262 261 262 267 271 272 267
250 256 255 247 239 225 219 227 211 191 185 192 205 206 207 218 219 209 194 173 149 170 200 216 199 171 183 184 179 175 185 192 175 180 194 188 230 209 184 195 206 203 202 192 195 241 154 198 266 332 221 293 23 162 183 209 20 53 98 145 122 152 178 166 166 169 172 226 281 309 301 247 218 209 200 212 219 215 236 251 246 249 254 260 267 273 275 272
241 243 258 252 244 227 215 217 206 193 195 213 202 208 211 213 218 212 210 206 158 177 214 225 202 183 190 186 174 170 193 204 182 187 207 192 213 235 194 191 184 185 190 186 194 201 133 210 237 338 340 170 194 217 191 179 170 153 163 173 185 138 109 156 205 132 136 168 220 290 291 263 237 204 191 206 216 206 218 231 236 249 254 260 271 278 279 281
240 233 253 244 243 224 203 201 200 197 211 213 210 224 218 207 201 208 213 212 211 221 221 224 214 203 191 184 193 185 184 200 193 198 227 204 211 244 202 188 166 138 155 174 203 206 185 202 181 147 222 205 220 242 204 190 184 178 189 191 186 174 147 173 234 203 124 174 184 200 275 268 240 192 199 206 205 207 217 214 228 253 257 264 277 282 286 292
244 240 241 225 231 209 189 190 201 199 205 213 216 221 212 207 197 198 203 205 218 239 232 224 222 213 197 184 196 181 167 195 200 199 231 222 216 229 201 187 173 157 153 172 203 199 167 119 156 188 218 218 237 269 208 205 195 156 202 201 183 174 164 172 210 216 167 218 182 128 271 273 252 166 207 238 243 231 221 209 226 252 261 273 281 283 291 297
248 252 247 222 221 205 186 186 227 201 210 221 218 215 203 210 198 175 186 196 209 223 220 224 199 204 218 191 177 175 175 197 202 202 224 234 226 234 209 187 176 162 161 182 199 185 138 120 183 220 315 303 303 332 12 71 108 173 254 179 164 189 189 173 191 185 166 208 188 128 256 264 281 61 249 272 278 266 226 215 231 257 266 274 279 281 288 296
258 260 256 234 212 200 187 188 210 203 223 224 219 212 208 218 206 181 184 191 198 200 207 222 198 203 221 174 164 190 186 196 215 212 220 233 227 225 208 192 182 171 180 190 179 171 170 185 186 175 295 309 316 314 290 231 141 197 225 192 191 198 188 153 95 124 194 223 189 169 245 246 264 327 303 308 307 286 251 233 235 261 269 272 275 278 284 296
270 263 255 237 210 196 195 215 214 204 213 218 222 208 205 220 210 203 202 197 201 201 204 218 201 186 199 182 197 208 192 201 221 213 215 238 249 206 199 197 191 191 205 202 182 172 174 190 181 180 209 222 225 229 216 182 147 191 214 201 204 198 185 188 200 183 228 228 183 189 242 247 284 314 288 317 329 287 270 259 243 249 261 270 272 274 282 295
262 250 232 225 214 206 208 215 217 218 210 213 222 211 208 217 207 206 206 201 207 209 214 222 188 173 189 196 210 223 210 214 223 214 210 223 235 200 193 195 196 206 218 211 181 169 154 200 192 193 208 217 225 222 153 132 146 203 216 201 202 203 194 196 209 211 219 217 198 219 233 252 262 234 235 277 263 250 271 274 253 246 254 268 273 275 280 285
247 248 206 203 220 225 218 209 211 221 210 204 201 198 211 217 212 203 202 204 209 208 215 229 192 185 194 195 209 224 216 214 223 228 228 217 221 316 197 191 201 210 213 200 179 168 105 208 202 204 212 222 236 221 153 146 169 199 209 201 203 203 193 196 215 221 202 134 249 237 205 242 258 240 215 246 245 246 263 255 251 253 259 269 273 273 274 275
236 252 238 214 206 229 220 207 208 214 214 209 195 190 212 215 216 204 196 208 213 205 206 222 212 210 206 199 206 218 210 209 221 227 231 220 193 5 205 190 215 215 204 185 183 170 144 209 208 213 219 230 240 218 169 172 185 196 203 203 203 198 193 202 217 223 202 180 244 241 174 215 252 248 211 220 213 224 242 247 252 257 260 263 265 265 267 270
237 256 259 251 245 262 264 237 217 213 216 215 206 205 210 212 216 214 195 203 216 205 200 210 216 217 215 208 206 211 207 204 218 223 217 195 184 174 180 214 245 225 193 176 186 171 182 211 204 204 222 241 244 218 175 191 202 202 207 206 202 198 199 207 216 222 214 213 242 250 223 237 254 252 221 230 224 234 247 254 254 253 254 256 256 257 261 265
229 235 259 267 259 262 276 271 236 221 216 211 211 212 209 212 215 212 200 197 202 195 199 215 222 217 215 215 213 221 220 212 221 224 186 172 202 195 190 193 173 180 185 182 196 184 195 209 136 143 214 250 246 202 166 195 207 217 222 217 214 210 207 211 218 220 219 228 244 254 260 260 257 218 249 256 245 244 256 259 254 253 253 253 252 254 257 261
233 234 250 281 287 253 261 258 239 241 222 209 212 209 207 214 213 209 208 205 203 195 193 212 225 222 216 219 218 228 232 223 226 231 184 193 211 199 201 200 157 156 178 176 172 146 175 198 72 105 214 247 236 166 167 186 195 229 238 226 221 218 211 211 216 214 209 220 237 245 255 259 251 207 251 262 249 239 250 255 257 260 259 255 253 255 259 263
237 241 249 262 271 245 248 251 236 246 241 221 218 214 213 214 207 206 215 210 209 212 207 209 219 220 216 218 218 226 232 229 230 248 225 216 222 210 197 187 163 165 168 156 166 174 159 169 148 138 210 249 237 146 155 153 169 236 239 226 220 213 201 207 220 223 214 210 220 227 236 248 253 246 251 261 247 233 243 249 255 260 263 262 261 262 265 268